Weather History for Patuxent River, MD

Change the Weather History Date:

Sunday, February 3, 2013

  Actual Average Record
Temperature  
Mean Temperature 32 °F -  
Max Temperature 36 °F 44 °F 44 °F (2014)
Min Temperature 27 °F 28 °F 35 °F (2014)
Degree Days  
Heating Degree Days 34    
Moisture  
Dew Point 25 °F    
Average Humidity 76    
Maximum Humidity 89    
Minimum Humidity 59    
Precipitation  
Precipitation 0.00 in - - ()
Sea Level Pressure  
Sea Level Pressure 29.91 in    
Wind  
Wind Speed 4 mph (NW)    
Max Wind Speed 22 mph    
Max Gust Speed 28 mph    
Visibility 10 miles    
Events Snow    
Averages and records for this station are not official NWS values.
T = Trace of Precipitation, MM = Missing Value Source: NWS Daily Summary

Daily Weather History Graph

Daily Weather History Graph

Search for Another Location

Airport:

Trip Planner

Search our weather history database for the weather conditions in past years. The results will help you decide how hot, cold, wet, or windy it might be!

Date:

Astronomy

Feb. 03, 2013 Rise Set
Actual Time 7:08 AM EST 5:30 PM EST
Civil Twilight 6:40 AM EST 5:58 PM EST
Nautical Twilight 6:09 AM EST 6:30 PM EST
Astronomical Twilight 5:38 AM EST 7:01 PM EST
Moon 12:33 AM EST (2/3) 11:06 AM EST (2/3)
Length of Visible Light 11h 17m
Length of Day
10h 22m
Waning Gibbous, 49% of the Moon is Illuminated
Feb 3
Waning Gibbous
Feb 10
New
Feb 17
First Quarter
Feb 25
Full
Mar 4
Last Quarter

Hourly Weather History & Observations

Time (EST) Temp. Windchill Dew Point Humidity Pressure Visibility Wind Dir Wind Speed Gust Speed Precip Events Conditions
12:52 AM 30.0 °F - 26.1 °F 85% 29.99 in 10.0 mi Calm Calm - N/A   Overcast
1:52 AM 32.0 °F 25.6 °F 27.0 °F 82% 29.98 in 10.0 mi NW 6.9 mph - N/A   Overcast
2:52 AM 32.0 °F 25.6 °F 26.1 °F 79% 29.96 in 10.0 mi NW 6.9 mph - N/A   Mostly Cloudy
3:52 AM 30.9 °F 23.5 °F 24.1 °F 76% 29.94 in 10.0 mi NW 8.1 mph - N/A   Clear
4:52 AM 28.9 °F 22.8 °F 23.0 °F 78% 29.93 in 10.0 mi NW 5.8 mph - N/A   Clear
5:52 AM 30.0 °F 25.2 °F 25.0 °F 82% 29.92 in 10.0 mi NW 4.6 mph - N/A   Clear
6:07 AM 30.2 °F 26.7 °F 24.8 °F 80% 29.92 in 10.0 mi NNW 3.5 mph - N/A   Scattered Clouds
6:52 AM 27.0 °F 21.6 °F 24.1 °F 89% 29.94 in 10.0 mi NW 4.6 mph - N/A   Overcast
7:52 AM 30.9 °F 26.2 °F 25.0 °F 79% 29.95 in 10.0 mi NNE 4.6 mph - N/A   Overcast
8:52 AM 32.0 °F 24.8 °F 26.1 °F 79% 29.95 in 10.0 mi NE 8.1 mph - N/A   Overcast
9:52 AM 32.0 °F 26.4 °F 25.0 °F 75% 29.94 in 10.0 mi NNE 5.8 mph - N/A   Overcast
10:52 AM 32.0 °F 27.5 °F 24.1 °F 73% 29.93 in 10.0 mi North 4.6 mph - N/A   Overcast
11:52 AM 34.0 °F - 21.9 °F 61% 29.91 in 10.0 mi Calm Calm - N/A   Overcast
12:52 PM 36.0 °F 33.3 °F 23.0 °F 59% 29.88 in 10.0 mi NNW 3.5 mph - N/A   Overcast
1:52 PM 34.0 °F 28.0 °F 26.1 °F 73% 29.86 in 3.0 mi WSW 6.9 mph - 0.00 in Snow Light Snow
2:52 PM 35.1 °F - 27.0 °F 72% 29.85 in 9.0 mi Calm Calm - 0.00 in   Overcast
3:52 PM 36.0 °F 31.1 °F 26.1 °F 67% 29.86 in 10.0 mi SW 5.8 mph - N/A   Overcast
4:52 PM 35.1 °F 32.2 °F 25.0 °F 67% 29.85 in 10.0 mi WSW 3.5 mph - N/A   Overcast
5:52 PM 34.0 °F - 25.0 °F 70% 29.85 in 10.0 mi Calm Calm - N/A   Mostly Cloudy
6:52 PM 30.9 °F - 26.1 °F 82% 29.87 in 10.0 mi Calm Calm - N/A   Overcast
7:52 PM 30.0 °F - 26.1 °F 85% 29.88 in 10.0 mi Calm Calm - N/A   Mostly Cloudy
8:52 PM 30.9 °F - 27.0 °F 85% 29.89 in 10.0 mi Calm Calm - N/A   Overcast
9:52 PM 32.0 °F 27.5 °F 27.0 °F 82% 29.91 in 10.0 mi WSW 4.6 mph - N/A   Overcast
10:52 PM 34.0 °F 26.0 °F 28.0 °F 79% 29.92 in 10.0 mi West 10.4 mph 16.1 mph N/A   Overcast
11:52 PM 34.0 °F 22.1 °F 21.9 °F 61% 29.94 in 10.0 mi WNW 21.9 mph 27.6 mph N/A   Overcast